FALCON 9 DEB (53810 NORAD) Tracking and Keplerian Element Data

This shows tracking and keplerian element data for the satellite.

Feedback or suggestion? Click here.




ElementValue
Catalog53810
NameFALCON 9 DEB
Epoch Orbit853
Epoch Day307.53241034
Epoch Year2022
RAAN354.3008
Inclination53.1854
Eccentricity0.0003942
Argument of Perigee11.5652
Mean Anonmoly348.5485
Mean Motion16.37213102
Decay Rate0.07283422
L11 53810U 22111AP 22307.53241034 .07283422 12333-4 73724-3 0 9990
L22 53810 53.1854 354.3008 0003942 11.5652 348.5485 16.37213102 8535



Live tracking and technical data element details for FALCON 9 DEB (NORAD 53810). FALCON 9 DEB can be tracked NOW for your location showing map with azimuth and elevation plus other details from your city location.







IsCatalogInMostPopularTable: catalog: 53810, numindb: -1

Insert: records affected: 1


GetName: 53810 FALCON 9 DEB

Hit Count: inserted at: Thu, 08 Dec 2022 09:28:10 GMT